NETSAT-4

Last updated on Sun Dec 14 2025 00:03:50 GMT+0000 (Coordinated Universal Time)

1 46504U 20068U 25347.21823214 .00023298 00000+0 64904-3 0 9998 2 46504 97.8599 336.5438 0004237 262.5353 97.5409 15.36794906287148
UTC large
Height (km)
Speed (km/s)
/
Latitude / Longitude
Inclination (degrees)
Orbital Period (minutes)
Azimuth
Elevation
Range (km)
Doppler Factor

Next 0 passes for location: London (51.5072 / 0.1276)

Sorry there are no passes over London.